パンスターズ彗星

C/2017 K2 ( PanSTARRS )

English version
Home page
Updated on August 15, 2020

---------------------------------------------------------------------

・ プロフィール

発見日 2017年5月21日
発見光度 20.8等
発見者 Pan-STARRS 1 telescope (Haleakala)

・ 写真集

・ 軌道要素

Epoch 2022 Dec. 7.0 TT = JDT 2459920.5
T 2022 Dec. 19.66789 TT                                 Rudenko
q   1.7969636            (2000.0)            P               Q
z  -0.0004768      Peri.  236.19651     +0.01818318     +0.04923218
 +/-0.0000006      Node    88.23539     -0.18095951     +0.98245408
e   1.0008569      Incl.   87.56307     -0.98332244     -0.17988933
From 2594 observations 2013 May 12-2020 Aug. 3, mean residual 0".4.

・ 星図

・ 光度変化

        m1 = 1.0 + 5 logΔ + 10.0 log r

---------------------------------------------------------------------

軌道要素はM.P.E.C. 2020-P19に掲載されたものです。
星図はステラナビゲータ Ver.10 (アストロアーツ) で作成したものです。
光度グラフはComet for Windowsで作成したものです。

---------------------------------------------------------------------

Copyright(C) Seiichi Yoshida (comet@aerith.net). All rights reserved.